Regional Weather Roundup
Issued by NWS Albany, NY

Home | Current Version | Previous Version | Text Only | Print | Product List | Glossary On
Versions: 1 2 3 4 5 6 7 8 9 10 11 12 13 14 15 16 17 18 19 20 21 22 23 24 25 26 27 28 29 30 31 32 33 34 35 36 37 38 39 40 41 42 43 44 45 46 47 48 49 50
000
ASUS41 KALY 201010
RWRALY

NEW YORK STATE HOURLY WEATHER ROUNDUP
NATIONAL WEATHER SERVICE ALBANY NY
600 AM EDT WED AUG 20 2014

NOTE: "FAIR" INDICATES FEW OR NO CLOUDS BELOW 12,000 FEET WITH NO
SIGNIFICANT WEATHER AND/OR NO OBSTRUCTIONS TO VISIBILITY.

NYZ032-033-038>043-046>054-057>066-NYZ062>081-201100-
EAST


CITY           SKY/WX    TMP DP  RH WIND       PRES   REMARKS
ALBANY         MOCLDY    60  56  86 N3        29.96R
GLENS FALLS    PTCLDY    53  51  93 CALM      29.97R
POUGHKEEPSIE   CLOUDY    63  60  90 CALM      29.96R
NEWBURGH       MOCLDY    64  64 100 CALM      29.98R
MONTGOMERY     CLOUDY    61  58  90 CALM      29.97R
WHITE PLAINS   MOCLDY    65  63  93 NW3       29.97R
ISLIP          PTCLDY    62  59  90 N3        29.96R
NEW YORK CITY  MOCLDY    71  64  78 S5        29.96R
CENTRAL PARK   CLOUDY    71  63  75 CALM      29.99R
$$

NYZ005>009-017-018-044>046-055-056-201100-
CENTRAL


CITY           SKY/WX    TMP DP  RH WIND       PRES   REMARKS
FULTON         CLEAR     62  58  86 VRB3      29.89R
SYRACUSE       PTCLDY    61  59  93 E3        29.89R
ROME           CLEAR     59  54  83 E6        29.93R
ELMIRA         CLOUDY    62  62 100 CALM      29.92S FOG
BINGHAMTON     MOCLDY    64  63  94 S5        29.96R
MONTICELLO     CLEAR     57  55  94 E5        30.00R
$$

NYZ026>034-041>043-201100-
NORTH


CITY           SKY/WX    TMP DP  RH WIND       PRES   REMARKS
WATERTOWN      CLEAR     58  52  80 E5        29.88S
FORT DRUM      NOT AVBL
MASSENA        PTCLDY    52  51  97 NE3       29.94R
SARANAC LAKE   MOCLDY    47  46  97 CALM      29.97S
PLATTSBURGH    CLEAR     49  48  97 W5        29.96R
$$

NYZ001>004-010>016-019>021-201100-
WEST


CITY           SKY/WX    TMP DP  RH WIND       PRES   REMARKS
NIAGARA FALLS  CLOUDY    68  63  84 CALM      29.85R
BUFFALO        CLOUDY    69  61  75 SE5       29.86R
DUNKIRK        CLOUDY    69  60  73 SW12G21   29.86R
JAMESTOWN      CLOUDY    63  61  94 S6        29.91S
WELLSVILLE     PTCLDY    66  63  90 S3        29.94S
ROCHESTER      MOCLDY    63  61  93 CALM      29.86S
PENN YAN       PTCLDY    67  64  90 SW5       29.90R FOG
$$

             KEY
       WCI = WIND CHILL INDEX
       VSB = VISIBILITY
       HX  = HEAT INDEX
$$



USA.gov is the U.S. government's official web portal to all federal, state and local government web resources and services.